PAY3236 MBPV-KMEM

Flight info

Callsign PAY3236
Flight time N/A
Altitude 38000
Route MICAS4 MICAS DCT SYRIL DCT HAANA DCT SURFR DCT GPEEE DCT VUZ DCT WASER VANZE3
Aircraft A21N/M-SDE2E3FGHIRWXYZ/LB1

Departure

Time N/A
Airport Providenciales International Airport (MBPV)

Arrival

Time 2026-05-03 20:32
Airport Memphis International Airport (KMEM)
Time Latitude Longitude Altitude Speed Heading
2026-05-03 20:15 34.87454 -89.70253 11329 ft 289 kts 302°
2026-05-03 20:15 34.88492 -89.72315 10850 ft 277 kts 302°
2026-05-03 20:15 34.89469 -89.74260 10453 ft 266 kts 302°
2026-05-03 20:15 34.90436 -89.76183 10093 ft 266 kts 302°
2026-05-03 20:16 34.91398 -89.78095 9740 ft 265 kts 302°
2026-05-03 20:16 34.92353 -89.79995 9396 ft 264 kts 302°
2026-05-03 20:16 34.93314 -89.81906 9051 ft 262 kts 302°
2026-05-03 20:16 34.94270 -89.83801 8769 ft 258 kts 303°
2026-05-03 20:17 34.95461 -89.85349 8553 ft 250 kts 329°
2026-05-03 20:17 34.97082 -89.85928 8458 ft 240 kts 355°
2026-05-03 20:17 34.98719 -89.85953 8384 ft 228 kts 357°
2026-05-03 20:17 35.00255 -89.85963 8385 ft 216 kts 357°
2026-05-03 20:18 35.01764 -89.85980 8086 ft 218 kts 356°
2026-05-03 20:18 35.03292 -89.86002 7743 ft 217 kts 356°
2026-05-03 20:18 35.04790 -89.86027 7444 ft 214 kts 356°
2026-05-03 20:18 35.06265 -89.86053 7166 ft 210 kts 356°
2026-05-03 20:19 35.07707 -89.86079 6904 ft 207 kts 355°
2026-05-03 20:19 35.09155 -89.86109 6640 ft 204 kts 355°
2026-05-03 20:19 35.10475 -89.86140 6253 ft 222 kts 355°
2026-05-03 20:19 35.11966 -89.86174 5569 ft 229 kts 355°
2026-05-03 20:20 35.13547 -89.86209 4944 ft 230 kts 356°
2026-05-03 20:20 35.15150 -89.86243 4329 ft 230 kts 356°
2026-05-03 20:20 35.16767 -89.86279 3712 ft 230 kts 356°
2026-05-03 20:20 35.18365 -89.86312 3193 ft 226 kts 356°
2026-05-03 20:21 35.19956 -89.86345 2970 ft 225 kts 357°
2026-05-03 20:21 35.21500 -89.86375 2969 ft 227 kts 356°
2026-05-03 20:21 35.23127 -89.86408 2967 ft 228 kts 356°
2026-05-03 20:21 35.24735 -89.86442 2965 ft 228 kts 356°
2026-05-03 20:22 35.26304 -89.86475 2962 ft 226 kts 356°
2026-05-03 20:22 35.27818 -89.86505 2944 ft 208 kts 356°
2026-05-03 20:22 35.29223 -89.86532 2930 ft 190 kts 356°
2026-05-03 20:22 35.30438 -89.86767 2954 ft 169 kts 334°
2026-05-03 20:23 35.31302 -89.87540 2912 ft 141 kts 305°
2026-05-03 20:23 35.31749 -89.88544 2907 ft 132 kts 282°
2026-05-03 20:23 35.31843 -89.89648 2943 ft 132 kts 262°
2026-05-03 20:23 35.31597 -89.90733 2957 ft 133 kts 243°
2026-05-03 20:24 35.31034 -89.91642 2961 ft 134 kts 223°
2026-05-03 20:24 35.30230 -89.92230 2956 ft 135 kts 202°
2026-05-03 20:24 35.29305 -89.92473 2962 ft 134 kts 194°
2026-05-03 20:24 35.28461 -89.92793 2920 ft 130 kts 208°
2026-05-03 20:25 35.27746 -89.93449 2597 ft 132 kts 229°
2026-05-03 20:25 35.27288 -89.94405 2158 ft 138 kts 246°
2026-05-03 20:25 35.26963 -89.95470 1958 ft 130 kts 249°
2026-05-03 20:25 35.26585 -89.96476 1970 ft 132 kts 234°
2026-05-03 20:26 35.25861 -89.97156 1964 ft 133 kts 204°
2026-05-03 20:26 35.24965 -89.97438 1966 ft 133 kts 192°
2026-05-03 20:26 35.24040 -89.97560 1960 ft 132 kts 187°
2026-05-03 20:26 35.23124 -89.97607 1957 ft 132 kts 185°
2026-05-03 20:27 35.22208 -89.97624 1960 ft 132 kts 184°
2026-05-03 20:27 35.21287 -89.97625 1960 ft 132 kts 184°
2026-05-03 20:27 35.20364 -89.97617 1962 ft 131 kts 184°
2026-05-03 20:27 35.19439 -89.97604 1960 ft 131 kts 183°
2026-05-03 20:28 35.18537 -89.97587 1960 ft 131 kts 182°
2026-05-03 20:28 35.17610 -89.97567 1966 ft 131 kts 183°
2026-05-03 20:28 35.16695 -89.97546 1962 ft 131 kts 183°
2026-05-03 20:28 35.15771 -89.97526 1962 ft 131 kts 182°
2026-05-03 20:29 35.14855 -89.97504 1963 ft 131 kts 182°
2026-05-03 20:29 35.13932 -89.97483 1965 ft 132 kts 183°
2026-05-03 20:29 35.13016 -89.97463 1821 ft 131 kts 184°
2026-05-03 20:29 35.12103 -89.97443 1658 ft 131 kts 184°
2026-05-03 20:30 35.11187 -89.97423 1491 ft 130 kts 184°
2026-05-03 20:30 35.10273 -89.97405 1320 ft 130 kts 182°
2026-05-03 20:30 35.09361 -89.97385 1151 ft 130 kts 182°
2026-05-03 20:30 35.08466 -89.97366 982 ft 130 kts 183°
2026-05-03 20:31 35.07555 -89.97347 813 ft 129 kts 184°
2026-05-03 20:31 35.06650 -89.97329 645 ft 129 kts 182°
2026-05-03 20:31 35.05762 -89.97304 472 ft 128 kts 182°
2026-05-03 20:31 35.04872 -89.97284 344 ft 126 kts 184°
2026-05-03 20:32 35.04002 -89.97293 299 ft 119 kts 180°
2026-05-03 20:32 35.03308 -89.97272 311 ft 74 kts 176°
2026-05-03 20:32 35.02966 -89.97254 315 ft 24 kts 176°
2026-05-03 20:32 35.02829 -89.97245 317 ft 33 kts 180°
2026-05-03 20:33 35.02626 -89.97221 319 ft 24 kts 151°
2026-05-03 20:33 35.02604 -89.97061 313 ft 23 kts 44°
2026-05-03 20:33 35.02697 -89.96992 311 ft 8 kts 344°
2026-05-03 20:33 35.02754 -89.97012 311 ft 9 kts 343°
2026-05-03 20:34 35.02828 -89.97038 311 ft 14 kts 344°
2026-05-03 20:34 35.02965 -89.97067 310 ft 22 kts 355°
2026-05-03 20:34 35.03122 -89.97078 309 ft 23 kts 359°
2026-05-03 20:34 35.03314 -89.97082 306 ft 32 kts 358°
2026-05-03 20:35 35.03541 -89.97087 303 ft 33 kts 359°
2026-05-03 20:35 35.03800 -89.97092 298 ft 37 kts 356°
2026-05-03 20:35 35.04040 -89.97101 294 ft 21 kts
2026-05-03 20:35 35.04197 -89.97096 291 ft 23 kts 358°
2026-05-03 20:36 35.04360 -89.97085 287 ft 24 kts 11°
2026-05-03 20:36 35.04528 -89.97060 284 ft 24 kts 359°
2026-05-03 20:36 35.04704 -89.97068 282 ft 25 kts 357°
2026-05-03 20:36 35.04879 -89.97074 279 ft 25 kts 359°
2026-05-03 20:37 35.05088 -89.97053 277 ft 31 kts
2026-05-03 20:37 35.05302 -89.97014 274 ft 30 kts
2026-05-03 20:37 35.05511 -89.96972 272 ft 30 kts
2026-05-03 20:37 35.05716 -89.96937 269 ft 29 kts
2026-05-03 20:38 35.05876 -89.96922 268 ft 15 kts 339°
2026-05-03 20:38 35.05923 -89.96967 267 ft 1 kts 312°
2026-05-03 20:38 35.05938 -89.96982 267 ft 3 kts 328°
2026-05-03 20:38 35.05969 -89.96997 267 ft 5 kts 341°
2026-05-03 20:39 35.05990 -89.97002 266 ft 1 kts 359°
2026-05-03 20:39 35.06003 -89.97003 266 ft 0 kts 359°